Time,TemperatureF,DewpointF,PressureIn,WindDirection,WindDirectionDegrees,WindSpeedMPH,WindSpeedGustMPH,Humidity,HourlyPrecipIn,Conditions,Clouds,dailyrainin,SoftwareType,DateUTC
2013-10-03 09:22:00,71.0,67.0,30.02,SE,132,0.0,-999.0,87,-99.99,,,-99.99,,2013-10-03 14:22:00,
2013-10-03 09:52:00,74.0,68.0,30.01,SE,135,3.0,-999.0,82,-99.99,,,-99.99,,2013-10-03 14:52:00,
2013-10-03 10:22:00,77.0,70.0,30.01,SSE,163,4.0,-999.0,79,-99.99,,,-99.99,,2013-10-03 15:22:00,
2013-10-03 10:43:00,77.0,70.0,30.01,SSE,156,5.0,-999.0,79,-99.99,,,-99.99,,2013-10-03 15:43:00,
2013-10-03 10:54:00,78.0,70.0,30.00,SSE,161,2.0,-999.0,77,-99.99,,,-99.99,,2013-10-03 15:54:00,
2013-10-03 11:23:00,79.0,70.0,30.00,SW,234,6.0,-999.0,75,-99.99,,,-99.99,,2013-10-03 16:23:00,
2013-10-03 11:42:00,80.0,71.0,30.00,SE,128,4.0,-999.0,74,-99.99,,,-99.99,,2013-10-03 16:42:00,
2013-10-03 11:53:00,80.0,71.0,30.00,SSW,202,6.0,-999.0,73,-99.99,,,-99.99,,2013-10-03 16:53:00,
2013-10-03 12:22:00,81.0,71.0,29.99,SW,222,7.0,-999.0,71,-99.99,,,-99.99,,2013-10-03 17:22:00,
2013-10-03 12:42:00,82.0,72.0,29.99,SW,229,4.0,-999.0,71,-99.99,,,-99.99,,2013-10-03 17:42:00,
2013-10-03 12:52:00,83.0,71.0,29.99,South,182,2.0,-999.0,68,-99.99,,,-99.99,,2013-10-03 17:52:00,
2013-10-03 13:12:00,83.0,71.0,29.99,SSE,167,4.0,-999.0,68,-99.99,,,-99.99,,2013-10-03 18:12:00,
2013-10-03 13:22:00,84.0,70.0,29.98,SSE,163,4.0,-999.0,64,-99.99,,,-99.99,,2013-10-03 18:22:00,
2013-10-03 13:52:00,84.0,70.0,29.96,SSE,165,5.0,-999.0,63,-99.99,,,-99.99,,2013-10-03 18:52:00,
2013-10-03 14:22:00,83.0,70.0,29.95,SSW,192,4.0,-999.0,64,-99.99,,,-99.99,,2013-10-03 19:22:00,
2013-10-03 14:52:00,84.0,70.0,29.94,South,176,4.0,-999.0,63,-99.99,,,-99.99,,2013-10-03 19:52:00,
2013-10-03 15:11:00,84.0,70.0,29.94,SSE,159,6.0,-999.0,62,-99.99,,,-99.99,,2013-10-03 20:11:00,
2013-10-03 15:21:00,85.0,70.0,29.93,SSW,194,2.0,-999.0,61,-99.99,,,-99.99,,2013-10-03 20:21:00,
2013-10-03 15:42:00,85.0,70.0,29.93,SSW,200,3.0,-999.0,61,-99.99,,,-99.99,,2013-10-03 20:42:00,
2013-10-03 15:52:00,84.0,70.0,29.93,South,190,1.0,-999.0,62,-99.99,,,-99.99,,2013-10-03 20:52:00,
2013-10-03 16:21:00,85.0,70.0,29.92,SSE,155,2.0,-999.0,60,-99.99,,,-99.99,,2013-10-03 21:21:00,
2013-10-03 16:54:00,85.0,69.0,29.92,South,186,3.0,-999.0,59,-99.99,,,-99.99,,2013-10-03 21:54:00,
2013-10-03 17:13:00,85.0,70.0,29.91,SSW,199,2.0,-999.0,60,-99.99,,,-99.99,,2013-10-03 22:13:00,
2013-10-03 17:23:00,85.0,69.0,29.91,SSE,153,6.0,-999.0,59,-99.99,,,-99.99,,2013-10-03 22:23:00,
2013-10-03 17:43:00,84.0,69.0,29.91,South,176,4.0,-999.0,61,-99.99,,,-99.99,,2013-10-03 22:43:00,
2013-10-03 17:54:00,84.0,70.0,29.91,SE,146,1.0,-999.0,62,-99.99,,,-99.99,,2013-10-03 22:54:00,
2013-10-03 18:22:00,82.0,69.0,29.91,SE,146,0.0,-999.0,66,-99.99,,,-99.99,,2013-10-03 23:22:00,